Location: Forst
(46.9333°N, 15.4333°E)
Time: 20:11:02
(UTC+00:00)

Envisat - Visible Passes

Search period start: 26 September 2021 00:00
Search period end: 06 October 2021 00:00
Orbit: 764 x 766 km, 98.2° (Epoch: 26 September)

Date Brightness Start Highest point End Pass type
(mag) Time Alt. Az. Time Alt. Az. Time Alt. Az.
26 Sep 5.1 03:21:59 10° NE 03:26:22 28° E 03:30:43 10° SSE visible
27 Sep 6.0 02:46:37 10° ENE 02:49:06 14° E 02:51:36 10° ESE visible
28 Sep 4.2 03:46:57 10° NNE 03:51:53 47° E 03:56:45 10° S visible
29 Sep 5.5 03:10:45 10° NE 03:14:45 23° E 03:18:44 10° SE visible
30 Sep 6.3 02:36:27 10° ENE 02:37:25 10° E 02:38:23 10° E visible
30 Sep 3.2 04:12:10 10° NNE 04:17:17 79° ESE 04:22:21 10° S visible
01 Oct 4.6 03:35:34 10° NNE 03:40:18 37° E 03:45:00 10° SSE visible
02 Oct 5.8 02:59:38 10° NE 03:03:07 18° E 03:06:36 10° SE visible
03 Oct 3.6 04:00:41 10° NNE 04:05:45 63° E 04:10:47 10° S visible
04 Oct 5.0 03:24:14 10° NNE 03:28:43 30° E 03:33:09 10° SSE visible
05 Oct 6.0 02:48:40 10° NE 02:51:28 15° E 02:54:14 10° ESE visible
05 Oct 3.0 04:25:59 10° NNE 04:31:05 79° WNW 04:36:10 10° SSW visible
